Hourly Data Report for May 30, 2021

WIARTON A
ONTARIO
Current Station Operator: NAVCAN

44°44'39.000" N
81°06'31.000" W
221.90 m
6119499
71633
YVV

Download Data

Hourly Data (May 2021)
Hourly Data Report for May 30, 2021
TIME
LST
Temp Definition
°C
Dew Point Definition
°C
Rel Hum Definition
%
Precip. Amount Definition
mm

Wind Dir Definition
10's deg

Wind Spd Definition
km/h
Visibility Definition
km
Stn Press Definition
kPa
Hmdx Definition


Wind Chill Definition


Weather Definition


00:00 7.0 -0.6 58   33 5 24.1 99.77     LegendNANA
01:00 1.4 0.8 96   13 8 24.1 99.78     Clear
02:00 1.3 0.8 97   13 5 24.1 99.80     LegendNANA
03:00 0.7 0.1 96   11 4 24.1 99.79     LegendNANA
04:00 0.0 -0.6 96   12 9 24.1 99.79   -3 Clear
05:00 0.1 -0.3 97   13 7 24.1 99.80     LegendNANA
06:00 3.8 2.9 94   15 8 24.1 99.85     LegendNANA
07:00 8.0 2.8 69   17 3 24.1 99.90     Clear
08:00 10.6 3.9 63   36 3 24.1 99.93     LegendNANA
09:00 13.3 4.8 56   33 7 24.1 99.92     LegendNANA
10:00 15.4 2.9 43   33 10 24.1 99.88     Clear
11:00 15.2 4.7 49   36 8 24.1 99.84     LegendNANA
12:00 17.0 0.4 32   2 12 24.1 99.83     LegendNANA
13:00 17.7 -1.0 28   3 13 24.1 99.81     Clear
14:00 17.9 -3.0 24   4 14 24.1 99.77     LegendNANA
15:00 17.9 -1.5 27   1 10 24.1 99.78     LegendNANA
16:00 17.5 -2.7 25   3 14 24.1 99.69     Clear
17:00 17.3 -2.0 27   4 10 24.1 99.72     LegendNANA
18:00 16.7 -2.4 27   4 14 24.1 99.68     LegendNANA
19:00 15.0 -1.1 33   5 9 24.1 99.68     Clear
20:00 10.8 3.0 58   36 1 24.1 99.72     LegendNANA
21:00 6.2 3.2 81   14 9 24.1 99.75     LegendNANA
22:00 4.9 2.5 84   11 10 24.1 99.73     Clear
23:00 5.6 2.5 80   12 8 24.1 99.73     LegendNANA

Notes on Data Quality.

Legend

  • E = Estimated
  • M = Missing
  • NA = Not Available*
  • [empty] = Indicates an unobserved value
Date modified: